owner,sensor,date,latitude,longitude,vertical_datum,sea_water_temperature,qcFlag
Shell,ioos:station:wmo:42877:1,2022-02-01T00:09:00Z,28.1585,-89.0936,10.2,25.8,11111222
Shell,ioos:station:wmo:42877:1,2022-02-01T00:19:00Z,28.1585,-89.0936,10.3,25.9,11111222
Shell,ioos:station:wmo:42877:1,2022-02-01T00:29:00Z,28.1585,-89.0936,10.3,25.9,11111222
Shell,ioos:station:wmo:42877:1,2022-02-01T00:39:00Z,28.1585,-89.0936,10.3,25.9,11111222
Shell,ioos:station:wmo:42877:1,2022-02-01T00:49:00Z,28.1585,-89.0936,10.3,25.9,11111222
Shell,ioos:station:wmo:42877:1,2022-02-01T00:59:00Z,28.1585,-89.0936,10.3,25.9,11111222
Shell,ioos:station:wmo:42877:1,2022-02-01T01:10:00Z,28.1585,-89.0936,10.4,25.9,11111222
Shell,ioos:station:wmo:42877:1,2022-02-01T01:20:00Z,28.1585,-89.0936,10.1,25.9,11111222
Shell,ioos:station:wmo:42877:1,2022-02-01T01:30:00Z,28.1585,-89.0936,10.1,25.9,11111222
Shell,ioos:station:wmo:42877:1,2022-02-01T01:40:00Z,28.1585,-89.0936,10.1,25.9,11111222
Shell,ioos:station:wmo:42877:1,2022-02-01T01:50:00Z,28.1585,-89.0936,10.1,26.0,11111222
Shell,ioos:station:wmo:42877:1,2022-02-01T02:00:00Z,28.1585,-89.0936,10.1,26.0,11111222
Shell,ioos:station:wmo:42877:1,2022-02-01T02:10:00Z,28.1585,-89.0936,10.1,26.0,11111222
Shell,ioos:station:wmo:42877:1,2022-02-01T02:20:00Z,28.1585,-89.0936,10.1,26.0,11111222
Shell,ioos:station:wmo:42877:1,2022-02-01T02:30:00Z,28.1585,-89.0936,10.1,26.0,11111222
Shell,ioos:station:wmo:42877:1,2022-02-01T02:40:00Z,28.1585,-89.0936,10.1,26.0,11111222
Shell,ioos:station:wmo:42877:1,2022-02-01T02:50:00Z,28.1585,-89.0936,10.1,26.0,11111222
Shell,ioos:station:wmo:42877:1,2022-02-01T03:00:00Z,28.1585,-89.0936,10.1,26.0,11111222
Shell,ioos:station:wmo:42877:1,2022-02-01T03:10:00Z,28.1585,-89.0936,10.1,26.0,11111222
Shell,ioos:station:wmo:42877:1,2022-02-01T03:20:00Z,28.1585,-89.0936,10.1,26.0,11111222
Shell,ioos:station:wmo:42877:1,2022-02-01T03:30:00Z,28.1585,-89.0936,10.1,26.0,11111222
Shell,ioos:station:wmo:42877:1,2022-02-01T03:40:00Z,28.1585,-89.0936,10.1,26.0,11111222
Shell,ioos:station:wmo:42877:1,2022-02-01T03:50:00Z,28.1585,-89.0936,10.1,26.0,11111222
Shell,ioos:station:wmo:42877:1,2022-02-01T04:00:00Z,28.1585,-89.0936,10.1,26.0,11111222
Shell,ioos:station:wmo:42877:1,2022-02-01T04:10:00Z,28.1585,-89.0936,10.1,26.0,11111222
Shell,ioos:station:wmo:42877:1,2022-02-01T04:20:00Z,28.1585,-89.0936,10.1,26.0,11111222
Shell,ioos:station:wmo:42877:1,2022-02-01T04:30:00Z,28.1585,-89.0936,10.1,26.0,11111222
Shell,ioos:station:wmo:42877:1,2022-02-01T04:40:00Z,28.1585,-89.0936,10.1,26.1,11111222
Shell,ioos:station:wmo:42877:1,2022-02-01T04:50:00Z,28.1585,-89.0936,10.1,26.1,11111222
Shell,ioos:station:wmo:42877:1,2022-02-01T05:00:00Z,28.1585,-89.0936,10.1,26.1,11111222
Shell,ioos:station:wmo:42877:1,2022-02-01T05:10:00Z,28.1585,-89.0936,10.1,26.1,11111222
Shell,ioos:station:wmo:42877:1,2022-02-01T05:20:00Z,28.1585,-89.0936,10.1,26.1,11111222
Shell,ioos:station:wmo:42877:1,2022-02-01T05:30:00Z,28.1585,-89.0936,10.0,26.1,11111222
Shell,ioos:station:wmo:42877:1,2022-02-01T05:40:00Z,28.1585,-89.0936,10.0,26.1,11111222
Shell,ioos:station:wmo:42877:1,2022-02-01T05:50:00Z,28.1585,-89.0936,10.0,26.1,11111222
Shell,ioos:station:wmo:42877:1,2022-02-01T06:00:00Z,28.1585,-89.0936,10.0,26.1,11111222
Shell,ioos:station:wmo:42877:1,2022-02-01T06:10:00Z,28.1585,-89.0936,10.0,26.1,11111222
Shell,ioos:station:wmo:42877:1,2022-02-01T06:20:00Z,28.1585,-89.0936,10.0,26.1,11111222
Shell,ioos:station:wmo:42877:1,2022-02-01T06:30:00Z,28.1585,-89.0936,10.1,26.1,11111222
Shell,ioos:station:wmo:42877:1,2022-02-01T06:40:00Z,28.1585,-89.0936,10.3,26.1,11111222
Shell,ioos:station:wmo:42877:1,2022-02-01T06:50:00Z,28.1585,-89.0936,10.2,26.1,11111222
Shell,ioos:station:wmo:42877:1,2022-02-01T07:00:00Z,28.1585,-89.0936,10.1,26.1,11111222
Shell,ioos:station:wmo:42877:1,2022-02-01T07:10:00Z,28.1585,-89.0936,10.1,26.1,11111222
Shell,ioos:station:wmo:42877:1,2022-02-01T07:20:00Z,28.1585,-89.0936,10.2,26.1,11111222
Shell,ioos:station:wmo:42877:1,2022-02-01T07:30:00Z,28.1585,-89.0936,10.2,26.1,11111222
Shell,ioos:station:wmo:42877:1,2022-02-01T07:40:00Z,28.1585,-89.0936,10.2,26.1,11111222
Shell,ioos:station:wmo:42877:1,2022-02-01T07:50:00Z,28.1585,-89.0936,10.2,26.1,11111222
Shell,ioos:station:wmo:42877:1,2022-02-01T08:00:00Z,28.1585,-89.0936,10.2,26.1,11111222
Shell,ioos:station:wmo:42877:1,2022-02-01T08:10:00Z,28.1585,-89.0936,10.1,26.1,11111222
Shell,ioos:station:wmo:42877:1,2022-02-01T08:20:00Z,28.1585,-89.0936,10.1,26.1,11111222
Shell,ioos:station:wmo:42877:1,2022-02-01T08:31:00Z,28.1585,-89.0936,10.0,26.1,11111222
Shell,ioos:station:wmo:42877:1,2022-02-01T08:41:00Z,28.1585,-89.0936,10.1,26.0,11111222
Shell,ioos:station:wmo:42877:1,2022-02-01T08:51:00Z,28.1585,-89.0936,10.0,26.0,11111222
Shell,ioos:station:wmo:42877:1,2022-02-01T09:01:00Z,28.1585,-89.0936,10.1,26.0,11111222
Shell,ioos:station:wmo:42877:1,2022-02-01T09:11:00Z,28.1585,-89.0936,10.1,26.0,11111222
Shell,ioos:station:wmo:42877:1,2022-02-01T09:21:00Z,28.1585,-89.0936,10.1,26.0,11111222
Shell,ioos:station:wmo:42877:1,2022-02-01T09:31:00Z,28.1585,-89.0936,10.1,26.0,11111222
Shell,ioos:station:wmo:42877:1,2022-02-01T09:41:00Z,28.1585,-89.0936,10.0,26.0,11111222
Shell,ioos:station:wmo:42877:1,2022-02-01T09:51:00Z,28.1585,-89.0936,10.1,25.9,11111222
Shell,ioos:station:wmo:42877:1,2022-02-01T10:01:00Z,28.1585,-89.0936,10.1,25.9,11111222
Shell,ioos:station:wmo:42877:1,2022-02-01T10:11:00Z,28.1585,-89.0936,10.1,25.9,11111222
Shell,ioos:station:wmo:42877:1,2022-02-01T10:21:00Z,28.1585,-89.0936,10.1,25.9,11111222
Shell,ioos:station:wmo:42877:1,2022-02-01T10:31:00Z,28.1585,-89.0936,10.1,25.9,11111222
Shell,ioos:station:wmo:42877:1,2022-02-01T10:41:00Z,28.1585,-89.0936,10.1,25.9,11111222
Shell,ioos:station:wmo:42877:1,2022-02-01T10:51:00Z,28.1585,-89.0936,10.2,26.0,11111222
Shell,ioos:station:wmo:42877:1,2022-02-01T11:01:00Z,28.1585,-89.0936,10.0,26.0,11111222
Shell,ioos:station:wmo:42877:1,2022-02-01T11:11:00Z,28.1585,-89.0936,9.8,26.0,11111222
Shell,ioos:station:wmo:42877:1,2022-02-01T11:21:00Z,28.1585,-89.0936,9.8,26.0,11111222
Shell,ioos:station:wmo:42877:1,2022-02-01T11:31:00Z,28.1585,-89.0936,9.8,26.0,11111222
Shell,ioos:station:wmo:42877:1,2022-02-01T11:41:00Z,28.1585,-89.0936,9.8,26.0,11111222
Shell,ioos:station:wmo:42877:1,2022-02-01T11:51:00Z,28.1585,-89.0936,9.8,26.0,11111222
Shell,ioos:station:wmo:42877:1,2022-02-01T12:01:00Z,28.1585,-89.0936,9.8,26.0,11111222
Shell,ioos:station:wmo:42877:1,2022-02-01T12:11:00Z,28.1585,-89.0936,9.9,26.0,11111222
Shell,ioos:station:wmo:42877:1,2022-02-01T12:21:00Z,28.1585,-89.0936,9.9,26.0,11111222
Shell,ioos:station:wmo:42877:1,2022-02-01T12:31:00Z,28.1585,-89.0936,9.9,26.0,11111222
Shell,ioos:station:wmo:42877:1,2022-02-01T12:41:00Z,28.1585,-89.0936,9.9,26.0,11111222
Shell,ioos:station:wmo:42877:1,2022-02-01T12:51:00Z,28.1585,-89.0936,9.9,26.0,11111222
Shell,ioos:station:wmo:42877:1,2022-02-01T13:01:00Z,28.1585,-89.0936,9.9,25.9,11111222
Shell,ioos:station:wmo:42877:1,2022-02-01T13:11:00Z,28.1585,-89.0936,9.8,25.9,11111222
Shell,ioos:station:wmo:42877:1,2022-02-01T13:21:00Z,28.1585,-89.0936,9.8,25.9,11111222
Shell,ioos:station:wmo:42877:1,2022-02-01T13:31:00Z,28.1585,-89.0936,9.8,25.9,11111222
Shell,ioos:station:wmo:42877:1,2022-02-01T13:41:00Z,28.1585,-89.0936,9.9,25.9,11111222
Shell,ioos:station:wmo:42877:1,2022-02-01T13:51:00Z,28.1585,-89.0936,9.9,25.9,11111222
Shell,ioos:station:wmo:42877:1,2022-02-03T15:59:00Z,28.1585,-89.0936,10.0,24.9,11111222
Shell,ioos:station:wmo:42877:1,2022-02-03T16:09:00Z,28.1585,-89.0936,10.0,24.9,11111222
Shell,ioos:station:wmo:42877:1,2022-02-03T16:19:00Z,28.1585,-89.0936,10.0,25.0,11111222
Shell,ioos:station:wmo:42877:1,2022-02-03T16:29:00Z,28.1585,-89.0936,10.0,25.0,11111222
Shell,ioos:station:wmo:42877:1,2022-02-03T16:39:00Z,28.1585,-89.0936,10.0,25.0,11111222
Shell,ioos:station:wmo:42877:1,2022-02-03T16:49:00Z,28.1585,-89.0936,10.0,25.1,11111222
Shell,ioos:station:wmo:42877:1,2022-02-03T16:59:00Z,28.1585,-89.0936,10.0,25.1,11111222
Shell,ioos:station:wmo:42877:1,2022-02-03T17:09:00Z,28.1585,-89.0936,10.0,25.1,11111222
Shell,ioos:station:wmo:42877:1,2022-02-03T17:19:00Z,28.1585,-89.0936,10.0,25.2,11111222
Shell,ioos:station:wmo:42877:1,2022-02-03T17:29:00Z,28.1585,-89.0936,10.0,25.2,11111222
Shell,ioos:station:wmo:42877:1,2022-02-03T17:39:00Z,28.1585,-89.0936,10.0,25.2,11111222
Shell,ioos:station:wmo:42877:1,2022-02-03T17:49:00Z,28.1585,-89.0936,9.9,25.2,11111222
Shell,ioos:station:wmo:42877:1,2022-02-03T17:59:00Z,28.1585,-89.0936,10.0,25.2,11111222
Shell,ioos:station:wmo:42877:1,2022-02-03T18:09:00Z,28.1585,-89.0936,10.1,25.2,11111222
Shell,ioos:station:wmo:42877:1,2022-02-03T18:19:00Z,28.1585,-89.0936,10.1,25.2,11111222
Shell,ioos:station:wmo:42877:1,2022-02-03T18:29:00Z,28.1585,-89.0936,9.9,25.2,11111222
Shell,ioos:station:wmo:42877:1,2022-02-03T18:39:00Z,28.1585,-89.0936,9.4,25.2,11111222
Shell,ioos:station:wmo:42877:1,2022-02-03T18:49:00Z,28.1585,-89.0936,8.9,25.2,11111222
Shell,ioos:station:wmo:42877:1,2022-02-03T18:59:00Z,28.1585,-89.0936,8.6,25.2,11111222
Shell,ioos:station:wmo:42877:1,2022-02-03T19:09:00Z,28.1585,-89.0936,9.1,25.2,11111222
Shell,ioos:station:wmo:42877:1,2022-02-03T19:19:00Z,28.1585,-89.0936,9.7,25.3,11111222
Shell,ioos:station:wmo:42877:1,2022-02-03T19:30:00Z,28.1585,-89.0936,9.7,25.3,11111222
Shell,ioos:station:wmo:42877:1,2022-02-03T19:40:00Z,28.1585,-89.0936,9.7,25.3,11111222
Shell,ioos:station:wmo:42877:1,2022-02-03T19:50:00Z,28.1585,-89.0936,9.7,25.3,11111222
Shell,ioos:station:wmo:42877:1,2022-02-03T20:00:00Z,28.1585,-89.0936,9.7,25.3,11111222
Shell,ioos:station:wmo:42877:1,2022-02-03T20:10:00Z,28.1585,-89.0936,9.7,25.4,11111222
Shell,ioos:station:wmo:42877:1,2022-02-03T20:20:00Z,28.1585,-89.0936,9.7,25.4,11111222
Shell,ioos:station:wmo:42877:1,2022-02-03T20:30:00Z,28.1585,-89.0936,9.8,25.4,11111222
Shell,ioos:station:wmo:42877:1,2022-02-03T20:40:00Z,28.1585,-89.0936,9.8,25.4,11111222
Shell,ioos:station:wmo:42877:1,2022-02-03T20:50:00Z,28.1585,-89.0936,9.8,25.4,11111222
Shell,ioos:station:wmo:42877:1,2022-02-03T21:00:00Z,28.1585,-89.0936,9.7,25.4,11111222
Shell,ioos:station:wmo:42877:1,2022-02-03T21:10:00Z,28.1585,-89.0936,9.6,25.5,11111222
Shell,ioos:station:wmo:42877:1,2022-02-03T21:20:00Z,28.1585,-89.0936,9.6,25.5,11111222
Shell,ioos:station:wmo:42877:1,2022-02-03T21:30:00Z,28.1585,-89.0936,9.6,25.5,11111222
Shell,ioos:station:wmo:42877:1,2022-02-03T21:40:00Z,28.1585,-89.0936,9.6,25.5,11111222
Shell,ioos:station:wmo:42877:1,2022-02-03T21:50:00Z,28.1585,-89.0936,9.6,25.5,11111222
Shell,ioos:station:wmo:42877:1,2022-02-03T22:00:00Z,28.1585,-89.0936,9.6,25.5,11111222
Shell,ioos:station:wmo:42877:1,2022-02-03T22:10:00Z,28.1585,-89.0936,9.6,25.5,11111222
Shell,ioos:station:wmo:42877:1,2022-02-03T22:20:00Z,28.1585,-89.0936,9.6,25.5,11111222
Shell,ioos:station:wmo:42877:1,2022-02-03T22:30:00Z,28.1585,-89.0936,9.5,25.4,11111222
Shell,ioos:station:wmo:42877:1,2022-02-03T22:40:00Z,28.1585,-89.0936,9.5,25.5,11111222
Shell,ioos:station:wmo:42877:1,2022-02-03T22:50:00Z,28.1585,-89.0936,9.5,25.4,11111222
Shell,ioos:station:wmo:42877:1,2022-02-03T23:00:00Z,28.1585,-89.0936,9.6,25.4,11111222
Shell,ioos:station:wmo:42877:1,2022-02-03T23:10:00Z,28.1585,-89.0936,9.7,25.4,11111222
Shell,ioos:station:wmo:42877:1,2022-02-03T23:20:00Z,28.1585,-89.0936,9.7,25.4,11111222
Shell,ioos:station:wmo:42877:1,2022-02-03T23:30:00Z,28.1585,-89.0936,9.7,25.4,11111222
Shell,ioos:station:wmo:42877:1,2022-02-03T23:40:00Z,28.1585,-89.0936,9.7,25.4,11111222
Shell,ioos:station:wmo:42877:1,2022-02-03T23:50:00Z,28.1585,-89.0936,9.7,25.4,11111222
Shell,ioos:station:wmo:42877:1,2022-02-04T00:00:00Z,28.1585,-89.0936,9.7,25.4,11111222
Shell,ioos:station:wmo:42877:1,2022-02-04T00:10:00Z,28.1585,-89.0936,9.7,25.4,11111222
Shell,ioos:station:wmo:42877:1,2022-02-04T00:20:00Z,28.1585,-89.0936,9.7,25.4,11111222
Shell,ioos:station:wmo:42877:1,2022-02-04T00:30:00Z,28.1585,-89.0936,9.7,25.4,11111222
Shell,ioos:station:wmo:42877:1,2022-02-04T00:40:00Z,28.1585,-89.0936,9.7,25.3,11111222
Shell,ioos:station:wmo:42877:1,2022-02-04T00:50:00Z,28.1585,-89.0936,9.7,25.3,11111222
Shell,ioos:station:wmo:42877:1,2022-02-04T01:00:00Z,28.1585,-89.0936,9.7,25.3,11111222
Shell,ioos:station:wmo:42877:1,2022-02-04T01:10:00Z,28.1585,-89.0936,9.7,25.3,11111222
Shell,ioos:station:wmo:42877:1,2022-02-04T01:20:00Z,28.1585,-89.0936,9.7,25.3,11111222
Shell,ioos:station:wmo:42877:1,2022-02-04T01:30:00Z,28.1585,-89.0936,9.7,25.3,11111222
Shell,ioos:station:wmo:42877:1,2022-02-04T01:40:00Z,28.1585,-89.0936,9.7,25.3,11111222
Shell,ioos:station:wmo:42877:1,2022-02-04T01:50:00Z,28.1585,-89.0936,9.7,25.3,11111222
Shell,ioos:station:wmo:42877:1,2022-02-04T02:00:00Z,28.1585,-89.0936,9.7,25.3,11111222
Shell,ioos:station:wmo:42877:1,2022-02-04T02:10:00Z,28.1585,-89.0936,9.7,25.3,11111222
Shell,ioos:station:wmo:42877:1,2022-02-04T02:20:00Z,28.1585,-89.0936,9.7,25.3,11111222
Shell,ioos:station:wmo:42877:1,2022-02-04T02:30:00Z,28.1585,-89.0936,9.7,25.3,11111222
Shell,ioos:station:wmo:42877:1,2022-02-04T02:40:00Z,28.1585,-89.0936,9.7,25.3,11111222
Shell,ioos:station:wmo:42877:1,2022-02-04T02:51:00Z,28.1585,-89.0936,9.8,25.3,11111222
Shell,ioos:station:wmo:42877:1,2022-02-04T03:01:00Z,28.1585,-89.0936,9.8,25.3,11111222
Shell,ioos:station:wmo:42877:1,2022-02-04T03:11:00Z,28.1585,-89.0936,9.8,25.2,11111222
Shell,ioos:station:wmo:42877:1,2022-02-04T03:21:00Z,28.1585,-89.0936,9.8,25.2,11111222
Shell,ioos:station:wmo:42877:1,2022-02-04T03:31:00Z,28.1585,-89.0936,9.8,25.2,11111222
Shell,ioos:station:wmo:42877:1,2022-02-04T03:41:00Z,28.1585,-89.0936,9.7,25.2,11111222
Shell,ioos:station:wmo:42877:1,2022-02-04T03:51:00Z,28.1585,-89.0936,9.7,25.2,11111222
Shell,ioos:station:wmo:42877:1,2022-02-04T04:01:00Z,28.1585,-89.0936,9.7,25.2,11111222
Shell,ioos:station:wmo:42877:1,2022-02-04T04:11:00Z,28.1585,-89.0936,9.7,25.2,11111222
Shell,ioos:station:wmo:42877:1,2022-02-04T04:21:00Z,28.1585,-89.0936,9.7,25.2,11111222
Shell,ioos:station:wmo:42877:1,2022-02-04T04:31:00Z,28.1585,-89.0936,9.7,25.2,11111222
Shell,ioos:station:wmo:42877:1,2022-02-04T04:41:00Z,28.1585,-89.0936,9.7,25.2,11111222
Shell,ioos:station:wmo:42877:1,2022-02-04T04:51:00Z,28.1585,-89.0936,9.7,25.2,11111222
Shell,ioos:station:wmo:42877:1,2022-02-04T05:01:00Z,28.1585,-89.0936,9.7,25.2,11111222
Shell,ioos:station:wmo:42877:1,2022-02-04T05:11:00Z,28.1585,-89.0936,9.7,25.2,11111222
Shell,ioos:station:wmo:42877:1,2022-02-04T05:21:00Z,28.1585,-89.0936,9.7,25.2,11111222
Shell,ioos:station:wmo:42877:1,2022-02-04T05:31:00Z,28.1585,-89.0936,9.7,25.2,11111222
Shell,ioos:station:wmo:42877:1,2022-02-04T05:41:00Z,28.1585,-89.0936,9.7,25.2,11111222
Shell,ioos:station:wmo:42877:1,2022-02-04T05:51:00Z,28.1585,-89.0936,9.7,25.1,11111222
Shell,ioos:station:wmo:42877:1,2022-02-04T06:01:00Z,28.1585,-89.0936,9.7,25.1,11111222
Shell,ioos:station:wmo:42877:1,2022-02-04T06:11:00Z,28.1585,-89.0936,9.8,25.1,11111222
Shell,ioos:station:wmo:42877:1,2022-02-04T06:21:00Z,28.1585,-89.0936,10.0,25.2,11111222
Shell,ioos:station:wmo:42877:1,2022-02-04T06:31:00Z,28.1585,-89.0936,10.0,25.2,11111222
Shell,ioos:station:wmo:42877:1,2022-02-04T06:41:00Z,28.1585,-89.0936,10.0,25.2,11111222
Shell,ioos:station:wmo:42877:1,2022-02-04T06:51:00Z,28.1585,-89.0936,9.9,25.2,11111222
Shell,ioos:station:wmo:42877:1,2022-02-04T07:01:00Z,28.1585,-89.0936,9.9,25.2,11111222
Shell,ioos:station:wmo:42877:1,2022-02-04T07:11:00Z,28.1585,-89.0936,9.9,25.2,11111222
Shell,ioos:station:wmo:42877:1,2022-02-04T07:21:00Z,28.1585,-89.0936,9.9,25.2,11111222
Shell,ioos:station:wmo:42877:1,2022-02-04T07:31:00Z,28.1585,-89.0936,9.8,25.2,11111222
Shell,ioos:station:wmo:42877:1,2022-02-04T07:41:00Z,28.1585,-89.0936,9.8,25.2,11111222
Shell,ioos:station:wmo:42877:1,2022-02-04T07:51:00Z,28.1585,-89.0936,9.8,25.1,11111222
Shell,ioos:station:wmo:42877:1,2022-02-04T08:01:00Z,28.1585,-89.0936,9.8,25.1,11111222
Shell,ioos:station:wmo:42877:1,2022-02-04T08:11:00Z,28.1585,-89.0936,9.8,25.1,11111222
Shell,ioos:station:wmo:42877:1,2022-02-04T08:21:00Z,28.1585,-89.0936,9.8,25.1,11111222
Shell,ioos:station:wmo:42877:1,2022-02-04T08:31:00Z,28.1585,-89.0936,9.8,25.1,11111222
Shell,ioos:station:wmo:42877:1,2022-02-04T08:41:00Z,28.1585,-89.0936,9.8,25.1,11111222
Shell,ioos:station:wmo:42877:1,2022-02-04T08:51:00Z,28.1585,-89.0936,9.8,25.0,11111222
Shell,ioos:station:wmo:42877:1,2022-02-04T09:01:00Z,28.1585,-89.0936,9.8,25.0,11111222
Shell,ioos:station:wmo:42877:1,2022-02-04T09:11:00Z,28.1585,-89.0936,9.8,25.0,11111222
Shell,ioos:station:wmo:42877:1,2022-02-04T09:21:00Z,28.1585,-89.0936,9.8,24.9,11111222
Shell,ioos:station:wmo:42877:1,2022-02-04T09:31:00Z,28.1585,-89.0936,9.8,24.9,11111222
Shell,ioos:station:wmo:42877:1,2022-02-04T09:41:00Z,28.1585,-89.0936,9.8,24.9,11111222
Shell,ioos:station:wmo:42877:1,2022-02-04T09:51:00Z,28.1585,-89.0936,9.8,24.8,11111222
Shell,ioos:station:wmo:42877:1,2022-02-04T10:01:00Z,28.1585,-89.0936,9.8,24.7,11111222
Shell,ioos:station:wmo:42877:1,2022-02-04T10:12:00Z,28.1585,-89.0936,9.8,24.6,11111222
Shell,ioos:station:wmo:42877:1,2022-02-04T10:22:00Z,28.1585,-89.0936,9.8,24.6,11111222
Shell,ioos:station:wmo:42877:1,2022-02-04T10:32:00Z,28.1585,-89.0936,9.8,24.5,11111222
Shell,ioos:station:wmo:42877:1,2022-02-04T10:42:00Z,28.1585,-89.0936,9.8,24.5,11111222
Shell,ioos:station:wmo:42877:1,2022-02-04T10:52:00Z,28.1585,-89.0936,9.8,24.4,11111222
Shell,ioos:station:wmo:42877:1,2022-02-04T11:02:00Z,28.1585,-89.0936,9.8,24.4,11111222
Shell,ioos:station:wmo:42877:1,2022-02-04T11:12:00Z,28.1585,-89.0936,9.8,24.4,11111222
Shell,ioos:station:wmo:42877:1,2022-02-04T11:22:00Z,28.1585,-89.0936,9.7,24.4,11111222
Shell,ioos:station:wmo:42877:1,2022-02-04T11:32:00Z,28.1585,-89.0936,9.8,24.4,11111222
Shell,ioos:station:wmo:42877:1,2022-02-04T11:42:00Z,28.1585,-89.0936,9.8,24.4,11111222
Shell,ioos:station:wmo:42877:1,2022-02-04T11:52:00Z,28.1585,-89.0936,9.8,24.4,11111222
Shell,ioos:station:wmo:42877:1,2022-02-04T12:02:00Z,28.1585,-89.0936,9.8,24.4,11111222
Shell,ioos:station:wmo:42877:1,2022-02-04T12:12:00Z,28.1585,-89.0936,9.8,24.4,11111222
Shell,ioos:station:wmo:42877:1,2022-02-04T12:22:00Z,28.1585,-89.0936,9.8,24.4,11111222
Shell,ioos:station:wmo:42877:1,2022-02-04T12:32:00Z,28.1585,-89.0936,9.8,24.4,11111222
Shell,ioos:station:wmo:42877:1,2022-02-04T12:42:00Z,28.1585,-89.0936,9.8,24.3,11111222
Shell,ioos:station:wmo:42877:1,2022-02-04T12:52:00Z,28.1585,-89.0936,9.8,24.4,11111222
Shell,ioos:station:wmo:42877:1,2022-02-04T13:02:00Z,28.1585,-89.0936,9.7,24.4,11111222
Shell,ioos:station:wmo:42877:1,2022-02-04T13:12:00Z,28.1585,-89.0936,9.7,24.3,11111222
Shell,ioos:station:wmo:42877:1,2022-02-04T13:22:00Z,28.1585,-89.0936,9.8,24.3,11111222
Shell,ioos:station:wmo:42877:1,2022-02-04T13:32:00Z,28.1585,-89.0936,9.8,24.3,11111222
Shell,ioos:station:wmo:42877:1,2022-02-04T13:42:00Z,28.1585,-89.0936,9.8,24.3,11111222
Shell,ioos:station:wmo:42877:1,2022-02-04T13:52:00Z,28.1585,-89.0936,9.8,24.3,11111222
Shell,ioos:station:wmo:42877:1,2022-02-04T14:02:00Z,28.1585,-89.0936,9.8,24.3,11111222
Shell,ioos:station:wmo:42877:1,2022-02-04T14:12:00Z,28.1585,-89.0936,9.8,24.3,11111222
Shell,ioos:station:wmo:42877:1,2022-02-04T14:22:00Z,28.1585,-89.0936,9.7,24.3,11111222
Shell,ioos:station:wmo:42877:1,2022-02-04T14:32:00Z,28.1585,-89.0936,9.7,24.3,11111222
Shell,ioos:station:wmo:42877:1,2022-02-04T14:42:00Z,28.1585,-89.0936,9.8,24.3,11111222
Shell,ioos:station:wmo:42877:1,2022-02-04T14:52:00Z,28.1585,-89.0936,9.7,24.2,11111222
Shell,ioos:station:wmo:42877:1,2022-02-04T15:02:00Z,28.1585,-89.0936,9.8,24.2,11111222
Shell,ioos:station:wmo:42877:1,2022-02-04T15:12:00Z,28.1585,-89.0936,9.6,24.1,11111222
Shell,ioos:station:wmo:42877:1,2022-02-04T15:22:00Z,28.1585,-89.0936,9.6,24.1,11111222
Shell,ioos:station:wmo:42877:1,2022-02-04T15:32:00Z,28.1585,-89.0936,9.7,24.0,11111222
Shell,ioos:station:wmo:42877:1,2022-02-04T15:42:00Z,28.1585,-89.0936,9.7,24.0,11111222
Shell,ioos:station:wmo:42877:1,2022-02-04T15:52:00Z,28.1585,-89.0936,9.7,24.0,11111222
Shell,ioos:station:wmo:42877:1,2022-02-04T16:02:00Z,28.1585,-89.0936,9.7,24.0,11111222
Shell,ioos:station:wmo:42877:1,2022-02-04T16:12:00Z,28.1585,-89.0936,9.7,24.0,11111222
Shell,ioos:station:wmo:42877:1,2022-02-04T16:22:00Z,28.1585,-89.0936,9.7,24.0,11111222
Shell,ioos:station:wmo:42877:1,2022-02-04T16:32:00Z,28.1585,-89.0936,9.7,24.0,11111222
Shell,ioos:station:wmo:42877:1,2022-02-04T16:42:00Z,28.1585,-89.0936,9.8,24.1,11111222
Shell,ioos:station:wmo:42877:1,2022-02-04T16:52:00Z,28.1585,-89.0936,9.8,24.1,11111222
Shell,ioos:station:wmo:42877:1,2022-02-04T17:02:00Z,28.1585,-89.0936,9.7,24.1,11111222
Shell,ioos:station:wmo:42877:1,2022-02-04T17:12:00Z,28.1585,-89.0936,9.7,24.1,11111222
Shell,ioos:station:wmo:42877:1,2022-02-04T17:23:00Z,28.1585,-89.0936,9.7,24.1,11111222
Shell,ioos:station:wmo:42877:1,2022-02-04T17:33:00Z,28.1585,-89.0936,9.7,24.1,11111222
Shell,ioos:station:wmo:42877:1,2022-02-04T17:43:00Z,28.1585,-89.0936,9.7,24.1,11111222
Shell,ioos:station:wmo:42877:1,2022-02-04T17:53:00Z,28.1585,-89.0936,9.7,24.1,11111222
Shell,ioos:station:wmo:42877:1,2022-02-04T18:03:00Z,28.1585,-89.0936,9.7,24.1,11111222
Shell,ioos:station:wmo:42877:1,2022-02-04T18:13:00Z,28.1585,-89.0936,9.7,24.1,11111222
Shell,ioos:station:wmo:42877:1,2022-02-04T18:23:00Z,28.1585,-89.0936,9.7,24.1,11111222
Shell,ioos:station:wmo:42877:1,2022-02-04T18:33:00Z,28.1585,-89.0936,9.7,24.0,11111222
Shell,ioos:station:wmo:42877:1,2022-02-04T18:43:00Z,28.1585,-89.0936,9.7,24.0,11111222
Shell,ioos:station:wmo:42877:1,2022-02-04T18:53:00Z,28.1585,-89.0936,9.7,23.9,11111222
Shell,ioos:station:wmo:42877:1,2022-02-04T19:03:00Z,28.1585,-89.0936,9.7,23.9,11111222
Shell,ioos:station:wmo:42877:1,2022-02-04T19:13:00Z,28.1585,-89.0936,9.7,23.9,11111222
Shell,ioos:station:wmo:42877:1,2022-02-04T19:23:00Z,28.1585,-89.0936,9.7,23.9,11111222
Shell,ioos:station:wmo:42877:1,2022-02-04T19:33:00Z,28.1585,-89.0936,9.7,23.9,11111222
Shell,ioos:station:wmo:42877:1,2022-02-04T19:43:00Z,28.1585,-89.0936,9.7,23.9,11111222
Shell,ioos:station:wmo:42877:1,2022-02-04T19:53:00Z,28.1585,-89.0936,9.7,23.9,11111222
Shell,ioos:station:wmo:42877:1,2022-02-04T20:03:00Z,28.1585,-89.0936,9.7,23.8,11111222
Shell,ioos:station:wmo:42877:1,2022-02-04T20:13:00Z,28.1585,-89.0936,9.7,23.8,11111222
Shell,ioos:station:wmo:42877:1,2022-02-04T20:23:00Z,28.1585,-89.0936,9.7,23.8,11111222
Shell,ioos:station:wmo:42877:1,2022-02-04T20:33:00Z,28.1585,-89.0936,9.7,23.8,11111222
Shell,ioos:station:wmo:42877:1,2022-02-04T20:43:00Z,28.1585,-89.0936,9.7,23.8,11111222
Shell,ioos:station:wmo:42877:1,2022-02-04T20:53:00Z,28.1585,-89.0936,9.7,23.8,11111222
Shell,ioos:station:wmo:42877:1,2022-02-04T21:03:00Z,28.1585,-89.0936,9.7,23.8,11111222
Shell,ioos:station:wmo:42877:1,2022-02-04T21:13:00Z,28.1585,-89.0936,9.7,23.7,11111222
Shell,ioos:station:wmo:42877:1,2022-02-04T21:23:00Z,28.1585,-89.0936,9.7,23.7,11111222
Shell,ioos:station:wmo:42877:1,2022-02-04T21:33:00Z,28.1585,-89.0936,9.7,23.7,11111222
Shell,ioos:station:wmo:42877:1,2022-02-04T21:43:00Z,28.1585,-89.0936,9.7,23.7,11111222
Shell,ioos:station:wmo:42877:1,2022-02-04T21:53:00Z,28.1585,-89.0936,9.7,23.7,11111222
Shell,ioos:station:wmo:42877:1,2022-02-04T22:03:00Z,28.1585,-89.0936,9.7,23.8,11111222
Shell,ioos:station:wmo:42877:1,2022-02-04T22:13:00Z,28.1585,-89.0936,9.7,23.9,11111222
Shell,ioos:station:wmo:42877:1,2022-02-04T22:23:00Z,28.1585,-89.0936,9.7,24.0,11111222
Shell,ioos:station:wmo:42877:1,2022-02-04T22:33:00Z,28.1585,-89.0936,9.9,24.1,11111222
Shell,ioos:station:wmo:42877:1,2022-02-04T22:43:00Z,28.1585,-89.0936,9.9,24.2,11111222
Shell,ioos:station:wmo:42877:1,2022-02-04T22:53:00Z,28.1585,-89.0936,9.9,24.3,11111222
Shell,ioos:station:wmo:42877:1,2022-02-04T23:03:00Z,28.1585,-89.0936,9.9,24.4,11111222